Stations météo

Publicité
Dinard, France (7125): Température de l'air & dewpoint: 23.09.2020 19:00:00 - 29.09.2020 19:00:00 (CEST)Dinard, France (7125): Température de l'air 5cm: 23.09.2020 19:00:00 - 29.09.2020 19:00:00 (CEST)Dinard, France (7125): Température de l'air -20cm: 23.09.2020 19:00:00 - 29.09.2020 19:00:00 (CEST)Dinard, France (7125): Vitesse du vent & gusts: 23.09.2020 19:00:00 - 29.09.2020 19:00:00 (CEST)Dinard, France (7125): Direction du vent: 23.09.2020 19:00:00 - 29.09.2020 19:00:00 (CEST)Dinard, France (7125): reduced air pressure: 23.09.2020 19:00:00 - 29.09.2020 19:00:00 (CEST)Dinard, France (7125): visibility: 23.09.2020 19:00:00 - 29.09.2020 19:00:00 (CEST)Dinard, France (7125): Ensoleillement: 23.09.2020 19:00:00 - 29.09.2020 19:00:00 (CEST)Dinard, France (7125): Quantités de précipitations: 23.09.2020 19:00:00 - 29.09.2020 19:00:00 (CEST)
Date & Time tt [°C] td [°C] tt 5cm [°C] tt -20cm [°C] ff [km/h] ff [knt] fx [km/h] fx [knt] dd ppp [hPa] vv [km] sd [min] rr [mm]
29.09.2020 19:00:00 15,5 13,2 15,6 15,9 4 2 12 7 N 1017,4 28 0 0,0
29.09.2020 18:00:00 16,2 13,1 16,8 15,7 6 4 18 10 NNE 1017,5 28 3 0,0
29.09.2020 17:00:00 16,5 13,4 17,6 15,6 12 7 19 10 NNW 1017,9 30 0 0,0
29.09.2020 16:00:00 17,4 14,1 16,7 15,4 5 3 13 7 N 1018,0 31 11 0,0
29.09.2020 15:00:00 16,5 13,4 17,4 15,2 8 5 16 9 NNW 1018,5 55 0 0,0
29.09.2020 14:00:00 16,5 14,1 16,4 15,0 8 4 14 8 WNW 1018,9 52 2 0,0
29.09.2020 13:00:00 15,2 14,6 15,6 14,9 9 5 19 10 NNW 1019,0 3,6 0 0,0
29.09.2020 12:00:00 15,1 14,5 15,3 14,8 13 7 18 10 NW 1019,2 5 0 0,8
29.09.2020 11:00:00 15,4 14,8 15,3 14,8 7 4 14 7 WSW 1019,1 3,9 0 0,0
29.09.2020 10:00:00 15,3 14,5 15,1 14,8 8 4 11 6 SW 1018,7 18 0 0,0
29.09.2020 09:00:00 14,9 14,4 14,5 14,7 8 4 11 6 SSW 1018,3 12 0 0,0
29.09.2020 08:00:00 14,7 14,2 14,4 14,7 6 3 11 6 SSW 1018,0 9 0 0,0
29.09.2020 07:00:00 14,8 14,2 14,5 14,7 8 5 15 8 SW 1017,9 10 0 0,0
29.09.2020 06:00:00 14,9 14,1 14,6 14,7 10 5 17 9 SW 1017,7 11 0 0,0
29.09.2020 05:00:00 14,9 13,9 14,5 14,8 12 7 19 10 SW 1017,6 13 0 0,0
29.09.2020 04:00:00 14,8 13,8 14,2 14,8 11 6 18 10 SSW 1017,8 15 0 0,0
29.09.2020 03:00:00 14,5 13,7 13,7 14,8 11 6 19 10 SSW 1017,6 15 0 0,0
29.09.2020 02:00:00 14,2 13,4 12,7 14,9 11 6 17 9 SSW 1017,8 14 0 0,0
29.09.2020 01:00:00 13,9 13,1 12,0 15,0 9 5 14 7 SSW 1017,9 14 0 0,0
29.09.2020 00:00:00 13,6 12,8 11,8 15,0 9 5 14 7 SSW 1018,2 13 0 0,0
28.09.2020 23:00:00 14,2 13,2 13,0 15,1 11 6 15 8 SW 1018,1 14 0 0,0
28.09.2020 22:00:00 15,3 14,0 14,1 15,1 10 5 16 8 SW 1017,7 14 0 0,0
28.09.2020 21:00:00 15,3 13,8 13,6 15,0 9 5 13 7 SSW 1017,6 18 0 0,0
28.09.2020 20:00:00 15,2 13,2 13,7 15,0 5 3 9 5 SSW 1017,2 6 0 0,0
28.09.2020 19:00:00 16,7 13,8 16,9 14,8 3 2 14 8 WSW 1016,7 21 0 0,0
28.09.2020 18:00:00 16,9 14,0 17,2 14,6 11 6 23 13 WNW 1016,7 27 0 0,0
28.09.2020 17:00:00 17,4 13,3 18,8 14,3 18 10 26 14 NW 1016,5 37 23 0,0
28.09.2020 16:00:00 17,6 13,5 19,4 14,1 12 6 23 12 WNW 1016,6 29 19 0,0
28.09.2020 15:00:00 17,1 13,8 17,5 13,8 11 6 22 12 W 1017,1 56 7 0,0
28.09.2020 14:00:00 15,6 12,7 16,1 13,6 16 8 26 14 WNW 1017,3 14 0 0,0
28.09.2020 13:00:00 15,8 12,9 16,3 13,5 14 8 39 21 WNW 1017,2 56 0 0,0
28.09.2020 12:00:00 15,8 11,4 15,3 13,4 24 13 38 21 NW 1017,0 41 11 0,0
28.09.2020 11:00:00 13,9 11,1 14,5 13,3 11 6 34 19 WSW 1016,8 48 33 0,0
28.09.2020 10:00:00 15,0 10,4 13,2 13,3 20 11 35 19 NNW 1016,4 21 47 0,0
28.09.2020 09:00:00 13,4 8,7 10,7 13,4 18 10 32 17 NW 1016,1 50 20 0,0
28.09.2020 08:00:00 12,5 7,6 10,8 13,4 21 11 32 17 NW 1015,6 58 0 0,0
28.09.2020 07:00:00 12,4 7,5 10,7 13,5 24 13 36 19 NW 1015,4 56 0 0,0
28.09.2020 06:00:00 12,2 7,9 10,5 13,6 20 11 34 18 NW 1015,3 55 0 0,0
28.09.2020 05:00:00 12,3 8,2 10,4 13,7 19 10 33 18 NNW 1015,7 48 0 0,0
28.09.2020 04:00:00 12,5 8,8 11,0 13,8 20 11 33 18 NW 1016,0 45 0 0,0
28.09.2020 03:00:00 13,0 9,3 10,5 13,8 19 10 31 17 NW 1016,3 47 0 0,0
28.09.2020 02:00:00 13,0 8,9 11,3 13,9 17 9 31 17 NW 1016,4 42 0 0,0
28.09.2020 01:00:00 13,6 9,4 12,1 14,0 22 12 35 19 NW 1016,4 44 0 0,0
28.09.2020 00:00:00 14,1 9,7 12,5 14,1 24 13 40 22 NW 1016,3 43 0 0,0
27.09.2020 23:00:00 14,1 9,5 12,3 14,1 21 11 38 20 NNW 1016,0 41 0 0,0
27.09.2020 22:00:00 13,8 9,0 12,2 14,2 23 12 44 24 NNW 1015,8 42 0 0,0
27.09.2020 21:00:00 14,1 9,5 12,6 14,2 24 13 47 25 NNW 1015,4 39 0 0,0
27.09.2020 20:00:00 14,2 9,6 13,0 14,2 28 15 52 28 NNW 1015,2 35 27 0,0
27.09.2020 19:00:00 14,8 9,6 14,7 14,1 32 18 56 30 NNW 1014,7 24 45 0,0
27.09.2020 18:00:00 14,9 9,0 15,4 14,0 38 20 54 29 NNW 1014,6 43 38 0,0
27.09.2020 17:00:00 14,9 8,8 15,3 13,8 32 17 58 31 NW 1015,1 34 31 0,0
27.09.2020 16:00:00 14,7 8,2 15,3 13,7 34 19 54 29 NNW 1015,2 20 26 0,0
27.09.2020 15:00:00 14,0 8,2 15,4 13,5 36 19 61 33 NNW 1015,3 27 17 0,0
27.09.2020 14:00:00 14,1 7,8 14,8 13,4 29 16 68 37 NNW 1015,3 60 25 0,0
27.09.2020 13:00:00 14,0 8,8 14,7 13,3 36 19 59 32 N 1015,3 21 28 0,0
27.09.2020 12:00:00 13,1 7,1 12,9 13,2 39 21 55 30 NNW 1015,4 60 4 0,0
27.09.2020 11:00:00 12,8 7,2 12,4 13,2 39 21 64 35 NNW 1015,1 29 0 0,0
27.09.2020 10:00:00 12,8 6,8 12,1 13,3 35 19 64 35 NNW 1014,7 41 0 0,0
27.09.2020 09:00:00 12,8 5,9 11,6 13,3 36 19 58 31 NNW 1014,4 36 0 0,0
27.09.2020 08:00:00 12,6 6,6 11,8 13,4 32 18 53 29 NNW 1014,7 35 0 0,0
27.09.2020 07:00:00 12,7 7,2 11,8 13,4 35 19 51 28 NNW 1014,5 40 0 0,0
27.09.2020 06:00:00 12,8 6,4 12,0 13,4 34 18 54 29 NNW 1014,8 42 0 0,0
27.09.2020 05:00:00 12,9 6,9 12,0 13,5 31 17 52 28 NNW 1015,1 42 0 0,0
27.09.2020 04:00:00 12,9 6,9 12,0 13,6 29 15 45 25 N 1015,3 53 0 0,0
27.09.2020 03:00:00 12,9 6,9 11,8 13,6 23 13 40 22 N 1015,4 55 0 0,0
27.09.2020 02:00:00 12,8 6,8 11,9 13,7 24 13 40 22 N 1015,6 56 0 0,0
27.09.2020 01:00:00 13,0 6,3 11,5 13,9 24 13 40 22 N 1015,5 56 0 0,0
27.09.2020 00:00:00 12,4 5,3 10,5 14,0 22 12 39 21 N 1015,3 59 0 0,0
26.09.2020 23:00:00 12,2 4,4 10,1 14,2 26 14 46 25 N 1015,3 56 0 0,0
26.09.2020 22:00:00 11,9 4,1 9,9 14,4 27 15 41 22 N 1015,3 58 0 0,0
26.09.2020 21:00:00 11,5 3,8 9,9 14,5 26 14 44 24 N 1014,8 59 0 0,0
26.09.2020 20:00:00 12,0 4,0 10,8 14,6 26 14 47 26 N 1014,5 54 25 0,0
26.09.2020 19:00:00 12,2 4,4 11,9 14,5 29 16 49 26 N 1013,9 46 44 0,0
26.09.2020 18:00:00 12,7 3,9 12,8 14,3 29 16 47 26 N 1013,7 37 51 0,0
26.09.2020 17:00:00 13,3 3,6 16,8 14,1 31 17 46 25 N 1013,6 24 60 0,0
26.09.2020 16:00:00 13,6 3,4 16,1 13,8 32 17 48 26 N 1013,6 29 57 0,0
26.09.2020 15:00:00 14,0 3,7 14,8 13,6 30 16 44 24 N 1013,4 36 47 0,0
26.09.2020 14:00:00 11,9 7,8 12,3 13,5 15 8 46 25 NNW 1013,8 27 5 0,2
26.09.2020 13:00:00 13,0 6,1 14,3 13,4 27 14 47 26 N 1014,1 20 21 0,0
26.09.2020 12:00:00 13,7 5,3 13,2 13,3 27 15 46 25 NW 1014,1 19 51 0,0
26.09.2020 11:00:00 13,5 3,8 10,8 13,3 26 14 44 24 NNW 1014,3 32 43 0,0
26.09.2020 10:00:00 12,6 5,5 8,8 13,3 22 12 40 21 NNW 1014,2 49 28 0,0
26.09.2020 09:00:00 11,2 5,7 8,6 13,4 20 11 39 21 NNW 1014,3 50 0 0,0
26.09.2020 08:00:00 10,6 7,3 8,6 13,4 16 9 50 27 NW 1014,2 39 0 1,0
26.09.2020 07:00:00 10,4 7,3 8,6 13,5 20 11 42 23 NNW 1014,6 27 0 0,2
26.09.2020 06:00:00 10,4 6,9 8,4 13,6 32 18 76 41 NNW 1014,9 19 0 0,2
26.09.2020 05:00:00 11,0 7,3 9,1 13,6 26 14 54 29 NNW 1014,7 8 0 0,4
26.09.2020 04:00:00 11,3 7,2 9,6 13,7 22 12 79 43 NNW 1015,1 20 0 0,0
26.09.2020 03:00:00 12,8 6,2 11,1 13,8 33 18 59 32 NNW 1015,2 52 0 0,0
26.09.2020 02:00:00 12,7 6,9 9,6 13,9 38 20 59 32 NW 1015,2 52 0 0,0
26.09.2020 01:00:00 12,6 6,2 10,8 14,0 27 14 65 35 NW 1015,8 59 0 0,0
26.09.2020 00:00:00 13,0 6,6 11,9 14,1 35 19 54 29 NW 1015,6 47 0 0,0
25.09.2020 23:00:00 13,2 5,8 11,2 14,3 31 17 53 28 NW 1015,6 52 0 0,0
25.09.2020 22:00:00 13,1 4,8 11,5 14,4 33 18 61 33 NW 1015,6 53 0 0,0
25.09.2020 21:00:00 13,3 4,7 11,8 14,5 38 20 68 37 NW 1015,1 49 0 0,0
25.09.2020 20:00:00 13,6 5,2 12,4 14,5 40 22 70 38 NW 1014,8 42 18 0,0
25.09.2020 19:00:00 13,7 5,3 13,2 14,5 37 20 66 36 NW 1014,0 26 20 0,0
25.09.2020 18:00:00 14,1 5,7 14,0 14,5 42 23 69 37 NW 1013,6 18 28 0,0
25.09.2020 17:00:00 14,4 7,4 13,7 14,4 38 21 68 37 NW 1013,1 10 38 0,0
25.09.2020 16:00:00 14,2 7,3 12,1 14,3 39 21 67 36 NW 1012,4 60 17 0,0
25.09.2020 15:00:00 13,2 7,8 10,7 14,1 31 17 75 40 NNW 1011,8 4,7 21 0,4
25.09.2020 14:00:00 14,4 6,2 12,6 14,0 38 20 71 38 NNW 1011,1 35 22 0,0
25.09.2020 13:00:00 14,3 7,6 12,3 13,9 41 22 67 36 NNW 1010,1 38 31 0,0
25.09.2020 12:00:00 12,9 6,7 11,2 13,9 40 22 74 40 NNW 1009,0 29 10 0,0
25.09.2020 11:00:00 12,8 7,9 9,6 13,9 37 20 58 31 NNW 1007,2 24 2 0,4
25.09.2020 10:00:00 11,2 8,2 8,7 14,0 32 18 76 41 NNW 1005,9 13 0 0,6
25.09.2020 09:00:00 11,4 8,1 9,4 14,0 31 17 59 32 WNW 1004,4 39 0 0,0
25.09.2020 08:00:00 11,3 8,3 8,8 14,1 29 15 58 32 NW 1003,5 21 0 1,0
25.09.2020 07:00:00 11,8 8,3 10,0 14,1 30 16 61 33 NW 1002,9 9 0 0,2
25.09.2020 06:00:00 12,3 6,1 10,6 14,3 39 21 76 41 NW 1001,8 43 0 0,0
25.09.2020 05:00:00 12,3 7,2 9,8 14,3 41 22 89 48 NW 1000,3 38 0 0,0
25.09.2020 04:00:00 11,8 8,3 9,1 14,4 48 26 82 44 WNW 999,1 19 0 0,6
25.09.2020 03:00:00 10,2 8,3 8,8 14,5 27 14 55 30 WSW 998,2 8 0 0,6
25.09.2020 02:00:00 10,1 8,0 8,4 14,7 31 17 54 29 SW 998,1 33 0 0,0
25.09.2020 01:00:00 9,8 7,6 8,0 14,8 29 16 50 27 WSW 998,1 18 0 0,0
25.09.2020 00:00:00 9,5 6,9 8,0 15,1 27 14 51 27 WSW 998,4 13 0 0,2
24.09.2020 23:00:00 10,2 6,2 9,6 15,3 31 17 61 33 SW 998,5 59 0 0,0
24.09.2020 22:00:00 10,5 6,1 9,6 15,4 30 16 53 29 SW 998,6 46 0 0,0
24.09.2020 21:00:00 10,2 6,3 8,9 15,6 26 14 44 24 SW 998,8 58 0 0,0
24.09.2020 20:00:00 10,1 6,4 9,0 15,7 22 12 39 21 SW 999,1 60 38 0,0
24.09.2020 19:00:00 11,4 5,5 10,8 15,8 25 13 45 24 W 998,8 31 32 0,0
24.09.2020 18:00:00 11,4 8,1 10,5 15,8 24 13 52 28 WSW 998,4 22 12 0,0
24.09.2020 17:00:00 12,5 7,8 12,4 15,9 25 13 46 25 WSW 998,6 56 0 0,0
24.09.2020 16:00:00 13,2 8,5 11,4 15,9 23 12 44 24 SW 998,1 42 0 0,2
24.09.2020 15:00:00 13,2 9,6 10,8 15,8 29 16 43 23 WSW 999,4 34 5 0,0
24.09.2020 14:00:00 11,6 9,2 9,1 15,7 25 14 66 36 SW 1000,3 22 16 3,5
24.09.2020 13:00:00 17,1 10,0 16,2 15,6 29 16 53 29 SW 1000,3 25 32 0,0
24.09.2020 12:00:00 15,9 8,6 15,4 15,5 31 17 52 28 SW 1001,3 20 58 0,0
24.09.2020 11:00:00 14,6 10,2 15,7 15,6 26 14 44 24 SW 1002,1 19 60 0,0
24.09.2020 10:00:00 13,2 10,4 11,4 15,6 21 11 32 18 SSW 1002,4 37 38 0,0
24.09.2020 09:00:00 12,1 10,7 10,9 15,7 17 9 27 15 SSW 1002,6 45 0 0,0
24.09.2020 08:00:00 11,7 10,4 10,8 15,8 20 11 42 23 SSW 1002,7 17 0 0,2
24.09.2020 07:00:00 11,4 10,0 10,6 15,9 20 11 39 21 SSW 1003,2 52 0 0,2
24.09.2020 06:00:00 11,7 9,3 10,1 16,1 21 12 35 19 SSW 1003,5 20 0 0,0
24.09.2020 05:00:00 10,6 8,7 8,3 16,3 22 12 34 18 S 1003,9 52 0 0,0
24.09.2020 04:00:00 9,0 8,1 7,9 16,5 17 9 29 15 S 1005,1 47 0 0,0
24.09.2020 03:00:00 8,8 7,9 8,1 16,8 15 8 23 13 S 1005,7 45 0 0,0
24.09.2020 02:00:00 9,2 8,0 8,4 17,0 15 8 23 13 SSW 1006,3 53 0 0,0
24.09.2020 01:00:00 9,8 8,1 8,8 17,2 16 9 24 13 SW 1006,6 58 0 0,0
24.09.2020 00:00:00 10,3 8,6 9,1 17,5 16 9 23 13 SW 1006,5 49 0 0,0
23.09.2020 23:00:00 10,5 8,6 9,3 17,7 14 7 21 12 SW 1006,4 57 0 0,0
23.09.2020 22:00:00 11,8 8,5 10,6 17,9 12 6 28 15 WSW 1006,2 58 0 0,0
23.09.2020 21:00:00 13,1 9,5 10,9 18,0 16 8 33 18 W 1005,5 56 0 0,0
23.09.2020 20:00:00 14,2 9,8 12,4 18,1 19 10 35 19 W 1004,6 56 5 0,0
23.09.2020 19:00:00 14,8 12,5 14,0 18,1 16 9 26 14 W 1004,0 54 22 0,0

tt = Température de l'air
td = dewpoint
tt 5cm = Température de l'air 5cm
tt -20cm = Température de l'air -20cm
ff = Vitesse du vent
fx = gusts
dd = Direction du vent
ppp = reduced air pressure
vv = visibility
sd = Ensoleillement
rr = Quantités de précipitations

stations d'obs. à proximité